Погода в Илире

Россия / Иркутская область     55°13′33″N   100°41′20″E
темп.,
°C
ветер,
м/с
пор.,
м/с
влажн.,
%
обл.,
%
осадки,
мм/ч
давл.,
гПа
погр.,
м
18 июня, пт
пт1823:00+13ю11550 0.0 101011
02:00+11юз11675 0.0 101110
05:00+9ююв11769 0.0 101010
08:00+15ю126299 0.0 1009113
11:00+19ююз124990 0.0 1008329
14:00+25ю12305 0.0 10061966
17:00+26с133244 0.0 10052354
20:00+23зсз015195 0.0 100420
19 июня, сб
сб1923:00+16ссз2474100 0.1 100586
02:00+15сз118194 0.1 100511
05:00+13зюз1192100 0.1 100511
08:00+18ююв017080 0.1 1004239
11:00+23зюз235047 0.2 10031100
14:00+22зсз245080 0.4 1003736
17:00+22з344989 0.0 1002617
20:00+22ююз256083 0.0 1002191
20 июня, вс
вс2023:00+15ююз2290100 0.3 100222
02:00+15ююз118956 0.4 100211
05:00+14юз119695 0.4 100211
08:00+19зсз11815 0.4 1002253
11:00+24з22536 0.0 10011113
14:00+27зсз244038 0.0 10002263
17:00+26ссв444383 0.0 1000828
20:00+24с36525 0.0 1001234
21 июня, пн
пн2123:00+17всв117598 0.1 100211
02:00+15зюз1184100 0.1 100311
05:00+14ссв118869 0.0 100211
08:00+19сз116497 0.0 1004309
11:00+24сз335024 0.0 10031319
14:00+17зсз786772 0.0 1006704
17:00+11зсз61278100 0.4 1008720
20:00+9зсз41092100 1.0 1011713
22 июня, вт
вт2223:00+8зсз41092100 0.1 1011566
02:00+8з2494100 0.1 1011153
05:00+6зюз1197100 0.0 101113
08:00+10сз1277100 0.0 1010324
11:00+16ссв1249100 0.0 1009809
14:00+20св2236100 0.0 10071179
17:00+21всв23315 0.0 10061288
20:00+18всв47480 0.0 1006395